Tracking 19832 objects as of 24-Aug-2019
HD Live streaming from Space Station
objects crossing your sky now

ZHEDA PIXING 1C

Track ZHEDA PIXING 1C now!
10-day predictions
ZHEDA PIXING 1C is classified as:


NORAD ID: 37167
Int'l Code: 2010-047C
Perigee: 617.4 km
Apogee: 651.1 km
Inclination: 97.7 °
Period: 97.3 minutes
Semi major axis: 7005 km
RCS: 0.149 m2 (medium)
Launch date: September 22, 2010
Source: People's Republic of China (PRC)
Launch site: Jiuquan Satellite Launch Center, China (JSC)
aabbcc
Your satellite tracking list
Your tracking list is empty




NASA's NSSDC Master Catalog

Two Line Element Set (TLE):
1 37167U 10047C   19236.18889194  .00000029  00000-0  10298-4 0  9990
2 37167  97.6817 230.2381 0024049 146.5790 213.6945 14.80714673481615
Source of the keplerian elements: AFSPC